Location: Sungai Bunut
(2.6333°N, 113.7333°E)
Time: 10:52:51
(UTC+00:00)

SL-8 Rocket - Pass Details

Date: 16 October 2021
Orbit: 956 x 991 km, 82.9° (Epoch: 29 November)

Event Time Altitude Azimuth Distance (km) Brightness Sun altitude
Rises 21:30:22 0° 355° (N) 3,638 6.9 -10.3°
Reaches altitude 10° 21:32:52 10° 355° (N) 2,689 6.2 -9.7°
Maximum altitude 21:39:01 83° 267° (W) 968 4.0 -8.2°
Drops below altitude 10° 21:45:09 10° 179° (S) 2,684 6.4 -6.7°
Sets 21:47:39 0° 178° (S) 3,631 7.1 -6.1°
